Location: Newark
(29.9790°N, 31.1340°E)
Time: 19:37:56
(UTC+00:00)

Transit 2A Rocket - Pass Details

Date: 19 January 2020
Orbit: 592 x 911 km, 66.7° (Epoch: 16 February)

Event Time Altitude Azimuth Distance (km) Brightness Sun altitude
Rises 03:13:51 0° 176° (S) 2,920 8.2 -21.0°
Reaches altitude 10° 03:16:30 10° 162° (SSE) 1,977 7.5 -20.4°
Maximum altitude 03:20:02 24° 109° (ESE) 1,267 7.0 -19.6°
Drops below altitude 10° 03:23:28 10° 55° (NE) 1,925 7.6 -18.9°
Sets 03:26:00 0° 41° (NE) 2,825 8.3 -18.4°
